• In Czech Republic
  • List of Countries
  • For 7 days
  • Water Temperature
  • Satellite Maps
  • Weather Map
  • Weather Widgets
  • user-avatar
    Login

    Hourly Weather Yerevan

    Today, 19 August, Saturday

    Time Temperature Precipitation Wind Pressure Humidity
    00:00 +26°C° 0.2 mm 2 mps 690 mmHg 59%
    01:00 +25°C° 0.2 mm 2 mps 690 mmHg 60%
    02:00 +25°C° 0.2 mm 2 mps 690 mmHg 62%
    03:00 +24°C° 0.2 mm 2 mps 690 mmHg 63%
    04:00 +24°C° 0 mm 2 mps 690 mmHg 63%
    05:00 +24°C° 0 mm 2 mps 690 mmHg 64%
    06:00 +24°C° 0 mm 1 mps 690 mmHg 64%
    07:00 +26°C° 0 mm 2 mps 691 mmHg 57%
    08:00 +28°C° 0 mm 2 mps 691 mmHg 49%
    09:00 +30°C° 0 mm 2 mps 691 mmHg 41%
    10:00 +31°C° 0 mm 2 mps 691 mmHg 37%
    11:00 +34°C° 0 mm 2 mps 691 mmHg 33%
    12:00 +35°C° 0 mm 3 mps 691 mmHg 29%
    13:00 +36°C° 0 mm 3 mps 691 mmHg 28%
    14:00 +36°C° 0 mm 3 mps 690 mmHg 26%
    15:00 +37°C° 0 mm 3 mps 690 mmHg 25%
    16:00 +36°C° 0 mm 3 mps 690 mmHg 27%
    17:00 +35°C° 0 mm 3 mps 690 mmHg 30%
    18:00 +34°C° 0 mm 3 mps 690 mmHg 32%
    19:00 +31°C° 0.1 mm 3 mps 690 mmHg 38%
    20:00 +30°C° 0.1 mm 3 mps 690 mmHg 44%
    21:00 +28°C° 0.1 mm 3 mps 691 mmHg 50%
    22:00 +27°C° 0 mm 3 mps 691 mmHg 50%
    23:00 +26°C° 0 mm 3 mps 691 mmHg 51%

    Tomorrow, 20 August, Sunday

    Time Temperature Precipitation Wind Pressure Humidity
    00:00 +26°C° 0 mm 3 mps 691 mmHg 52%
    01:00 +25°C° 0 mm 2 mps 691 mmHg 53%
    02:00 +25°C° 0 mm 2 mps 691 mmHg 54%
    03:00 +24°C° 0 mm 2 mps 691 mmHg 55%
    04:00 +24°C° 0 mm 2 mps 691 mmHg 55%
    05:00 +24°C° 0 mm 2 mps 691 mmHg 55%
    06:00 +24°C° 0 mm 2 mps 691 mmHg 56%
    07:00 +26°C° 0 mm 2 mps 691 mmHg 49%
    08:00 +28°C° 0 mm 2 mps 691 mmHg 42%
    09:00 +30°C° 0 mm 2 mps 691 mmHg 35%
    10:00 +32°C° 0 mm 2 mps 691 mmHg 32%
    11:00 +34°C° 0 mm 2 mps 691 mmHg 29%
    12:00 +35°C° 0 mm 3 mps 691 mmHg 26%
    13:00 +36°C° 0 mm 3 mps 690 mmHg 25%
    14:00 +37°C° 0 mm 3 mps 690 mmHg 24%
    15:00 +37°C° 0 mm 3 mps 690 mmHg 23%
    16:00 +36°C° 0 mm 3 mps 689 mmHg 25%
    17:00 +35°C° 0 mm 3 mps 689 mmHg 27%
    18:00 +34°C° 0 mm 3 mps 689 mmHg 29%
    19:00 +31°C° 0 mm 3 mps 689 mmHg 33%
    20:00 +29°C° 0 mm 3 mps 690 mmHg 36%
    21:00 +28°C° 0 mm 3 mps 690 mmHg 40%
    22:00 +27°C° 0 mm 3 mps 690 mmHg 40%
    23:00 +26°C° 0 mm 3 mps 690 mmHg 41%

    Day after tomorrow, 21 August, Monday

    Time Temperature Precipitation Wind Pressure Humidity
    00:00 +26°C° 0 mm 2 mps 690 mmHg 41%
    01:00 +25°C° 0 mm 2 mps 690 mmHg 42%
    02:00 +24°C° 0 mm 2 mps 690 mmHg 43%
    03:00 +24°C° 0 mm 2 mps 690 mmHg 45%
    04:00 +24°C° 0 mm 2 mps 690 mmHg 45%
    05:00 +23°C° 0 mm 2 mps 690 mmHg 46%
    06:00 +23°C° 0 mm 1 mps 690 mmHg 47%
    07:00 +26°C° 0 mm 1 mps 690 mmHg 41%
    08:00 +28°C° 0 mm 1 mps 690 mmHg 35%
    09:00 +30°C° 0 mm 1 mps 690 mmHg 29%
    10:00 +32°C° 0 mm 2 mps 690 mmHg 26%
    11:00 +34°C° 0 mm 2 mps 690 mmHg 23%
    12:00 +36°C° 0 mm 2 mps 690 mmHg 20%
    13:00 +36°C° 0 mm 2 mps 689 mmHg 18%
    14:00 +37°C° 0 mm 2 mps 689 mmHg 17%
    15:00 +37°C° 0 mm 2 mps 688 mmHg 15%
    16:00 +36°C° 0 mm 2 mps 688 mmHg 19%
    17:00 +34°C° 0 mm 1 mps 688 mmHg 22%
    18:00 +33°C° 0 mm 1 mps 688 mmHg 25%
    19:00 +32°C° 0 mm 2 mps 688 mmHg 28%
    20:00 +30°C° 0 mm 2 mps 688 mmHg 32%
    21:00 +28°C° 0 mm 2 mps 689 mmHg 35%
    22:00 +27°C° 0 mm 2 mps 689 mmHg 38%
    23:00 +26°C° 0 mm 2 mps 689 mmHg 41%

    22 August, Tuesday

    Time Temperature Precipitation Wind Pressure Humidity
    00:00 +26°C° 0 mm 2 mps 688 mmHg 44%
    01:00 +25°C° 0 mm 2 mps 688 mmHg 44%
    02:00 +25°C° 0 mm 2 mps 688 mmHg 45%
    03:00 +24°C° 0 mm 1 mps 688 mmHg 45%
    04:00 +24°C° 0 mm 1 mps 688 mmHg 44%
    05:00 +24°C° 0 mm 1 mps 688 mmHg 42%
    06:00 +24°C° 0 mm 1 mps 688 mmHg 41%
    07:00 +27°C° 0 mm 1 mps 689 mmHg 35%
    08:00 +30°C° 0 mm 2 mps 689 mmHg 29%
    09:00 +32°C° 0 mm 2 mps 689 mmHg 23%
    10:00 +35°C° 0 mm 2 mps 689 mmHg 21%
    11:00 +36°C° 0 mm 2 mps 689 mmHg 19%
    12:00 +37°C° 0 mm 3 mps 689 mmHg 18%
    13:00 +38°C° 0 mm 3 mps 688 mmHg 17%
    14:00 +39°C° 0 mm 3 mps 688 mmHg 16%
    15:00 +39°C° 0 mm 3 mps 687 mmHg 16%
    16:00 +38°C° 0 mm 2 mps 687 mmHg 18%
    17:00 +37°C° 0 mm 2 mps 687 mmHg 21%
    18:00 +36°C° 0 mm 2 mps 687 mmHg 24%
    19:00 +34°C° 0 mm 2 mps 687 mmHg 28%
    20:00 +31°C° 0 mm 2 mps 688 mmHg 31%
    21:00 +29°C° 0 mm 3 mps 688 mmHg 35%
    22:00 +29°C° 0 mm 3 mps 688 mmHg 37%
    23:00 +28°C° 0 mm 3 mps 688 mmHg 39%

    23 August, Wednesday

    Time Temperature Precipitation Wind Pressure Humidity
    00:00 +27°C° 0 mm 3 mps 688 mmHg 41%
    01:00 +27°C° 0 mm 3 mps 688 mmHg 42%
    02:00 +26°C° 0 mm 2 mps 688 mmHg 43%
    03:00 +25°C° 0 mm 2 mps 688 mmHg 44%
    04:00 +25°C° 0 mm 2 mps 688 mmHg 44%
    05:00 +25°C° 0 mm 2 mps 688 mmHg 45%
    06:00 +25°C° 0 mm 2 mps 689 mmHg 45%
    07:00 +27°C° 0 mm 2 mps 689 mmHg 39%
    08:00 +30°C° 0 mm 2 mps 689 mmHg 34%
    09:00 +32°C° 0 mm 2 mps 689 mmHg 28%
    10:00 +35°C° 0 mm 2 mps 689 mmHg 25%
    11:00 +36°C° 0 mm 2 mps 689 mmHg 23%
    12:00 +38°C° 0 mm 2 mps 689 mmHg 20%
    13:00 +38°C° 0 mm 2 mps 689 mmHg 19%
    14:00 +39°C° 0 mm 2 mps 689 mmHg 18%
    15:00 +39°C° 0 mm 2 mps 688 mmHg 18%
    16:00 +38°C° 0 mm 3 mps 688 mmHg 20%
    17:00 +37°C° 0 mm 3 mps 689 mmHg 23%
    18:00 +36°C° 0 mm 3 mps 689 mmHg 26%
    19:00 +34°C° 0 mm 3 mps 689 mmHg 30%
    20:00 +31°C° 0 mm 3 mps 689 mmHg 34%
    21:00 +29°C° 0 mm 3 mps 690 mmHg 38%
    22:00 +28°C° 0 mm 3 mps 690 mmHg 39%
    23:00 +27°C° 0 mm 3 mps 690 mmHg 40%

    24 August, Thursday

    Time Temperature Precipitation Wind Pressure Humidity
    00:00 +26°C° 0 mm 3 mps 690 mmHg 40%
    01:00 +26°C° 0 mm 3 mps 690 mmHg 42%
    02:00 +25°C° 0 mm 3 mps 690 mmHg 43%
    03:00 +25°C° 0 mm 3 mps 690 mmHg 45%
    04:00 +24°C° 0 mm 2 mps 690 mmHg 46%
    05:00 +24°C° 0 mm 2 mps 691 mmHg 47%
    06:00 +24°C° 0 mm 2 mps 691 mmHg 48%
    07:00 +26°C° 0 mm 2 mps 691 mmHg 42%
    08:00 +29°C° 0 mm 2 mps 691 mmHg 36%
    09:00 +31°C° 0 mm 2 mps 691 mmHg 30%
    10:00 +34°C° 0 mm 2 mps 691 mmHg 27%
    11:00 +35°C° 0 mm 2 mps 691 mmHg 24%
    12:00 +37°C° 0 mm 2 mps 691 mmHg 21%
    13:00 +38°C° 0 mm 2 mps 691 mmHg 20%
    14:00 +38°C° 0 mm 2 mps 690 mmHg 19%
    15:00 +39°C° 0 mm 3 mps 690 mmHg 18%
    16:00 +38°C° 0 mm 2 mps 690 mmHg 20%
    17:00 +37°C° 0 mm 2 mps 690 mmHg 23%
    18:00 +36°C° 0 mm 2 mps 690 mmHg 25%
    19:00 +34°C° 0 mm 2 mps 690 mmHg 29%
    20:00 +31°C° 0 mm 3 mps 690 mmHg 32%
    21:00 +29°C° 0 mm 3 mps 690 mmHg 36%
    22:00 +28°C° 0 mm 3 mps 690 mmHg 36%
    23:00 +27°C° 0 mm 3 mps 690 mmHg 36%
    Show more